Location: Newark
(60.6414°N, 46.5703°E)
Time: 15:18:23
(UTC+00:00)

ISS - Visible Passes

Search period start: 23 October 2019 00:00
Search period end: 02 November 2019 00:00
Orbit: 411 x 421 km, 51.6° (Epoch: 24 October)

Date Brightness Start Highest point End Pass type
(mag) Time Alt. Az. Time Alt. Az. Time Alt. Az.
28 Oct -1.0 03:18:31 10° SSW 03:20:32 15° SSE 03:22:32 10° SE visible
29 Oct -1.0 02:30:30 10° S 02:32:08 13° SSE 02:33:45 10° SE visible
30 Oct -0.9 01:42:58 10° SSE 01:43:44 11° SSE 01:44:32 10° SE visible
30 Oct -1.3 03:17:12 10° SW 03:19:33 18° S 03:21:53 10° SE visible
31 Oct -1.3 02:28:53 10° SSW 02:31:06 16° SSE 02:33:18 10° SE visible
01 Nov -1.3 01:41:46 14° S 01:42:39 15° SSE 01:44:37 10° SE visible
01 Nov -1.5 03:16:10 10° SW 03:18:33 18° S 03:20:55 10° SE visible
